Regional Weather Roundup
Issued by NWS

Home | Current Version | Previous Version | Text Only | Print | Product List | Glossary Off
Versions: 1 2 3 4 5 6 7 8 9 10 11 12 13 14 15 16 17 18 19 20 21 22 23 24 25 26 27 28 29 30 31 32 33 34 35 36 37 38 39 40 41 42 43 44 45 46 47 48 49 50

000
ASUS43 KIND 300409
RWRIN

WEATHER ROUNDUP FOR INDIANA
NATIONAL WEATHER SERVICE INDIANAPOLIS IN
1200 AM EDT TUE SEP 30 2014

NOTE: "FAIR" INDICATES FEW OR NO CLOUDS BELOW 12,000 FEET WITH NO
SIGNIFICANT WEATHER AND/OR OBSTRUCTIONS TO VISIBILITY.

* - STATION DOES NOT REPORT WEATHER SUCH AS PRECIPITATION OR FOG.

+ - STATION NOT QUALITY CONTROLLED BY THE NATIONAL WEATHER SERVICE.
    USE DATA WITH CAUTION...ESPECIALLY DEWPOINT AND RELATIVE
    HUMIDITY OBSERVATIONS.

INZ001>003-010>013-019-020-300500-
NORTHWEST INDIANA

CITY           SKY/WX    TMP DP  RH WIND       PRES   REMARKS
GARY /AIRPORT/ CLOUDY    60  55  82 N13G21    30.01S
KNOX *+        CLOUDY    59  55  86 N12       29.97R
LA PORTE +     CLOUDY    59  58  94 N13G22    29.98S
MICHIGAN CITY+ CLOUDY    57  55  94 N14       29.99S
MONTICELLO +   CLEAR     62  60  94 N6        29.94R
RENSSELAER +   CLOUDY    61  59  94 N9        29.97R FOG
VALPARAISO     CLOUDY    58  55  90 N9        29.98S

$$

LMZ046-743>745-300500-
SOUTHERN LAKE MICHIGAN

STATION/POSITION TIME  TEMP WIND        PRES
                       AIR  DIR/SP/G
                 (UTC) (F)  (DEG/KT/KT) (MB)
MICHIGAN CITY    0400   58  360/ 22/ 25   N/A

$$

INZ004-005-014>016-021>024-300500-
NORTH CENTRAL INDIANA

CITY           SKY/WX    TMP DP  RH WIND       PRES   REMARKS
LOGANSPORT +   CLEAR     59  52  77 CALM      29.93S
PERU/GRISSOM   CLEAR     61  61 100 S3        29.92F
ROCHESTER +    CLEAR     64  59  82 N10       29.94R
SOUTH BEND     CLOUDY    59  55  87 NW8       29.97S
WARSAW +       CLEAR     61  55  82 NW6       29.94R

$$

INZ006>009-017-018-025>027-300500-
NORTHEAST INDIANA

CITY           SKY/WX    TMP DP  RH WIND       PRES   REMARKS
ANGOLA *+      CLEAR     63  57  82 N7        29.93R
AUBURN +       CLEAR     59  55  88 CALM      29.92F
FORT WAYNE     PTCLDY    58  54  86 SW5       29.92F
HUNTINGTON +   CLEAR     58  57  97 CALM      29.92F

$$

INZ028-029-035-036-043>045-051>053-300500-
WEST CENTRAL INDIANA

CITY           SKY/WX    TMP DP  RH WIND       PRES   REMARKS
GREENCASTLE +  CLEAR     57  55  94 CALM      29.95F
LAFAYETTE      PTCLDY    59  58  96 CALM      29.93S
TERRE HAUTE    CLEAR     57  55  93 CALM      29.95S

$$

INZ030>032-037>040-046>048-054>057-064-065-300500-
CENTRAL INDIANA

CITY           SKY/WX    TMP DP  RH WIND       PRES   REMARKS
CP ATTERBURY + CLEAR     54  52  94 CALM      29.95F
FRANKFORT +    CLEAR     57  57 100 CALM      29.95S
GREENWOOD *+   CLEAR     59  50  72 CALM      29.95
INDIANAPOLIS   CLEAR     63  54  72 SW5       29.93F
-EAGLE CREEK   CLEAR     62  55  77 MISG      29.94S
KOKOMO *+      CLEAR     57  54  88 S3        29.93F
MARION +       CLEAR     56  52  88 SW6       29.93F
MT COMFORT *+  CLEAR     55  50  82 CALM      29.95F
SHELBYVILLE    CLEAR     57  52  83 CALM      29.94F
ZIONSVILLE +   CLEAR     55  52  88 CALM      29.95F

$$

INZ033-034-041-042-049-050-058-059-300500-
EAST CENTRAL INDIANA

CITY           SKY/WX    TMP DP  RH WIND       PRES   REMARKS
MUNCIE         CLEAR     59  53  80 CALM      29.94F

$$

INZ060-061-067>069-081>083-085>088-300500-
SOUTHWEST INDIANA

CITY           SKY/WX    TMP DP  RH WIND       PRES   REMARKS
EVANSVILLE     CLEAR     64  57  78 CALM      29.96S
WASHINGTON +   CLEAR     57  54  90 CALM      29.95S

$$

INZ062-063-066-070>080-084-089>092-300500-
SOUTH CENTRAL AND SOUTHEAST INDIANA

CITY           SKY/WX    TMP DP  RH WIND       PRES   REMARKS
BLOOMINGTON    CLEAR     56  55  97 CALM      29.95F

$$




USA.gov is the U.S. government's official web portal to all federal, state and local government web resources and services.